Regional Weather Roundup
Issued by NWS

Home | Current Version | Previous Version | Text Only | Print | Product List | Glossary Off
Versions: 1 2 3 4 5 6 7 8 9 10 11 12 13 14 15 16 17 18 19 20 21 22 23 24 25 26 27 28 29 30 31 32 33 34 35 36 37 38 39 40 41 42 43 44 45 46 47 48 49 50

000
ASUS43 KOAX 261010
RWRNE

WEATHER ROUNDUP FOR NEBRASKA
NATIONAL WEATHER SERVICE OMAHA NE
400 AM CST SUN FEB 26 2017

NOTES: SATELLITE DATA IS BEING USED TO AUGMENT CLOUD COVER ABOVE
       12000 FEET.
       "FAIR" INDICATES FEW OR NO CLOUDS BELOW 12,000 FEET WITH NO
       SIGNIFICANT WEATHER AND/OR OBSTRUCTIONS TO VISIBILITY.

  * THESE STATIONS DO NOT REPORT WEATHER SUCH AS RAIN...SNOW OR FOG.

NEZ001>004-019>022-054>056-261100-
NEBRASKA PANHANDLE

CITY           SKY/WX    TMP DP  RH WIND       PRES   REMARKS
SCOTTSBLUFF    CLEAR      9   2  73 NW7       29.81S WCI  -2
ALLIANCE       CLEAR      7   1  76 W15       29.78R WCI -10
CHADRON        CLEAR      8   0  69 SW10      29.80S WCI  -6
KIMBALL        CLEAR     15   6  67 W14       29.79S WCI   0
SIDNEY         CLEAR     16   4  59 W15       29.81F WCI   1
$$

NEZ057>060-069>072-079>082-261100-
SOUTHWEST NEBRASKA

CITY           SKY/WX    TMP DP  RH WIND       PRES   REMARKS
NORTH PLATTE   CLEAR     21  12  68 W9        29.84S WCI  11
IMPERIAL       PTCLDY    21  14  74 W6        29.86F WCI  13
LEXINGTON      CLEAR     22  15  75 SW6       29.86S WCI  14
MCCOOK         CLOUDY    23  15  71 NW6       29.87F WCI  16
OGALLALA       CLEAR     16   9  72 W9        29.84F WCI   5
$$

NEZ005>010-023>029-035>040-094-261100-
NORTH CENTRAL NEBRASKA

CITY           SKY/WX    TMP DP  RH WIND       PRES   REMARKS
VALENTINE      CLEAR     10   3  73 W8        29.78R WCI  -2
AINSWORTH      CLEAR     14   8  78 W9        29.77R WCI   2
BROKEN BOW     CLEAR     22  11  62 W10       29.81F WCI  11
O`NEILL        CLEAR     19  11  70 W12       29.78S WCI   7
ORD            CLEAR     23  11  60 W12       29.81S WCI  12
THEDFORD       CLEAR     19  10  68 W14       29.80S WCI   6
$$

NEZ041-046>049-061>064-073>077-083>087-261100-
SOUTH CENTRAL NEBRASKA

CITY           SKY/WX    TMP DP  RH WIND       PRES   REMARKS
GRAND ISLAND   CLEAR     30  18  60 SW14      29.86F WCI  19
AURORA         CLEAR     29  20  67 SW12      29.86S WCI  20
HASTINGS       CLEAR     26  19  74 W5        29.87S WCI  20
HEBRON         CLOUDY    30  24  77 SW3       29.91F
HOLDREGE       PTCLDY    27  14  59 W8        29.86S WCI  19
KEARNEY *      CLEAR     27  16  63 W3        29.87S
YORK           CLEAR     30  23  74 SW12      29.87S WCI  21
$$

NEZ011>018-030>034-042>045-261100-
NORTHEAST NEBRASKA

CITY           SKY/WX    TMP DP  RH WIND       PRES   REMARKS
NORFOLK        CLEAR     20  12  71 W7        29.80F WCI  11
ALBION         CLEAR     21  12  70 CALM      29.82S
BLAIR          CLEAR     29  24  82 SW7       29.84S WCI  22
FREMONT        CLEAR     30  21  69 SW7       29.85S WCI  23
TEKAMAH        CLEAR     27  20  75 W15       29.84F WCI  15
WAYNE          CLEAR     21  15  76 SW10      29.81S WCI  10
$$

NEZ050>053-065>068-078-088>093-261100-
SOUTHEAST NEBRASKA

CITY           SKY/WX    TMP DP  RH WIND       PRES   REMARKS
LINCOLN        CLEAR     34  22  61 SW10      29.89S WCI  26
OMAHA EPPLEY   MOCLDY    32  21  64 SW9       29.86S WCI  24
BEATRICE       CLOUDY    32  25  74 S8        29.91F WCI  25
FALLS CITY     PTCLDY    31  20  63 SW9       29.94F WCI  23
NEBRASKA CITY  MOCLDY    31  19  62 SW10      29.89F WCI  22
PLATTSMOUTH    CLEAR     31  19  62 SW12      29.87S WCI  22
$$

NEZ044-045-051>053-067-261100-
OMAHA AREA

CITY           SKY/WX    TMP DP  RH WIND       PRES   REMARKS
OMAHA EPPLEY   MOCLDY    32  21  64 SW9       29.86S WCI  24
BLAIR          CLEAR     29  24  82 SW7       29.84S WCI  22
FREMONT        CLEAR     30  21  69 SW7       29.85S WCI  23
MILLARD        CLEAR     35  25  66 SW7       29.86S WCI  29
OFFUTT AFB     PTCLDY    31  20  66 SW9       29.86F WCI  22
PLATTSMOUTH    CLEAR     31  19  62 SW12      29.87S WCI  22
WAHOO          FAIR      31  21  65 W9        29.86S WCI  23
$$




USA.gov is the U.S. government's official web portal to all federal, state and local government web resources and services.